TimeCDT,TemperatureF,Dew PointF,Humidity,Sea Level PressureIn,VisibilityMPH,Wind Direction,Wind SpeedMPH,Gust SpeedMPH,PrecipitationIn,Events,Conditions,WindDirDegrees,DateUTC
12:53 AM,84.9,54.0,34,29.80,10.0,SSE,12.7,-,N/A,,Clear,150,2013-08-03 05:53:00
1:53 AM,84.0,53.1,34,29.81,10.0,SSE,13.8,-,N/A,,Clear,160,2013-08-03 06:53:00
2:53 AM,81.0,53.1,38,29.81,10.0,SSE,11.5,-,N/A,,Clear,150,2013-08-03 07:53:00
3:53 AM,80.1,53.1,39,29.80,10.0,SSE,10.4,-,N/A,,Clear,150,2013-08-03 08:53:00
4:53 AM,79.0,54.0,42,29.81,10.0,SE,9.2,-,N/A,,Clear,140,2013-08-03 09:53:00
5:53 AM,79.0,54.0,42,29.81,10.0,SE,12.7,-,N/A,,Clear,140,2013-08-03 10:53:00
6:53 AM,77.0,54.0,45,29.83,10.0,SE,10.4,-,N/A,,Scattered Clouds,140,2013-08-03 11:53:00
7:53 AM,75.9,55.0,48,29.84,10.0,SE,9.2,-,N/A,,Partly Cloudy,130,2013-08-03 12:53:00
8:53 AM,81.0,57.0,44,29.84,10.0,SSE,15.0,20.7,N/A,,Partly Cloudy,150,2013-08-03 13:53:00
9:53 AM,84.9,57.0,38,29.84,10.0,SSE,10.4,-,N/A,,Mostly Cloudy,150,2013-08-03 14:53:00
10:53 AM,90.0,57.0,33,29.85,10.0,SSE,9.2,-,N/A,,Partly Cloudy,160,2013-08-03 15:53:00
11:53 AM,93.9,54.0,26,29.84,10.0,South,8.1,-,N/A,,Clear,170,2013-08-03 16:53:00
12:53 PM,99.0,53.1,21,29.82,10.0,Variable,3.5,-,N/A,,Clear,0,2013-08-03 17:53:00
1:53 PM,100.9,52.0,19,29.81,10.0,SE,8.1,-,N/A,,Clear,140,2013-08-03 18:53:00
2:53 PM,100.0,50.0,18,29.80,10.0,ESE,9.2,-,N/A,,Partly Cloudy,110,2013-08-03 19:53:00
3:53 PM,102.9,46.9,15,29.78,10.0,NE,8.1,-,N/A,,Clear,50,2013-08-03 20:53:00
4:53 PM,104.0,46.0,14,29.75,10.0,East,8.1,-,N/A,,Scattered Clouds,100,2013-08-03 21:53:00
5:53 PM,102.9,48.0,16,29.75,10.0,SE,12.7,20.7,N/A,,Clear,140,2013-08-03 22:53:00
6:53 PM,100.9,48.9,17,29.75,10.0,SSE,16.1,19.6,N/A,,Clear,160,2013-08-03 23:53:00
7:53 PM,100.0,46.9,16,29.75,10.0,ESE,11.5,-,N/A,,Clear,120,2013-08-04 00:53:00
8:53 PM,95.0,48.9,21,29.77,10.0,SE,19.6,26.5,N/A,,Clear,140,2013-08-04 01:53:00
9:53 PM,91.9,54.0,27,29.79,10.0,SSE,18.4,-,N/A,,Clear,150,2013-08-04 02:53:00
10:53 PM,89.1,53.1,29,29.83,10.0,SSE,16.1,24.2,N/A,,Clear,150,2013-08-04 03:53:00
11:53 PM,87.1,54.0,32,29.85,10.0,SSE,16.1,-,N/A,,Clear,150,2013-08-04 04:53:00